Location: Palomar Mountain Lodge
(33.3110°N, 116.8495°W)
Time: 18:53:08
(UTC-08:00)

Cosmos 304 Rocket - Pass Details

Date: 12 July 2018
Orbit: 680 x 687 km, 74.0° (Epoch: 18 November)

Event Time Altitude Azimuth Distance (km) Brightness Sun altitude
Rises 21:10:49 0° 349° (N) 3,041 7.9 -13.5°
Reaches altitude 10° 21:13:12 10° 354° (N) 2,123 6.9 -13.9°
Maximum altitude 21:17:50 51° 71° (ENE) 859 4.0 -14.7°
Enters shadow 21:20:25 24° 136° (SE) 1,379 4.7 -15.1°
